FHY641 LTBS-EGHH

Flight info

Callsign FHY641
Flight time N/A
Altitude 28000
Route KEKIK1U/01 KEKIK N127 UFQUM/N0448F360 UN127 RIKSO DCT STINO DCT PEREN DCT DISOR DCT LONTA UL608 DOLEV DCT TIMID DCT EVTON DCT MONID DCT SABAD DCT RIFEN DCT SAFFA/N0446F380 DCT ELMUR DCT RIPUS DCT DITON DCT HOC DCT LUL DCT RLP DCT ROTSI DCT KOTUN DCT NIDUV DCT SOSUN DCT SUBIP UM8 ELDAX
Aircraft A320/M-SDE3FGHIRWY/LB1

Departure

Time 2026-05-06 18:26
Airport Dalaman International Airport (LTBS)

Arrival

Time N/A
Airport Bournemouth Airport (EGHH)
Time Latitude Longitude Altitude Speed Heading
2026-05-06 17:43 36.72272 28.79051 15 ft 0 kts 285°
2026-05-06 18:12 36.72271 28.79058 12 ft 3 kts 284°
2026-05-06 18:13 36.72266 28.79084 12 ft 3 kts 277°
2026-05-06 18:13 36.72265 28.79110 12 ft 3 kts 264°
2026-05-06 18:13 36.72269 28.79134 13 ft 3 kts 234°
2026-05-06 18:13 36.72280 28.79146 14 ft 1 kts 196°
2026-05-06 18:14 36.72284 28.79148 14 ft 1 kts 196°
2026-05-06 18:18 36.72241 28.79132 12 ft 12 kts 196°
2026-05-06 18:18 36.72160 28.79104 12 ft 12 kts 195°
2026-05-06 18:19 36.72074 28.79074 12 ft 13 kts 195°
2026-05-06 18:19 36.71979 28.79042 12 ft 15 kts 195°
2026-05-06 18:19 36.71914 28.79032 13 ft 9 kts 163°
2026-05-06 18:19 36.71887 28.79097 12 ft 10 kts 103°
2026-05-06 18:20 36.71873 28.79174 12 ft 8 kts 105°
2026-05-06 18:20 36.71837 28.79209 12 ft 6 kts 170°
2026-05-06 18:20 36.71777 28.79195 12 ft 11 kts 196°
2026-05-06 18:20 36.71705 28.79170 12 ft 11 kts 195°
2026-05-06 18:21 36.71632 28.79146 12 ft 11 kts 195°
2026-05-06 18:21 36.71539 28.79114 12 ft 15 kts 195°
2026-05-06 18:21 36.71435 28.79078 12 ft 16 kts 195°
2026-05-06 18:21 36.71322 28.79040 12 ft 17 kts 195°
2026-05-06 18:22 36.71202 28.78999 13 ft 19 kts 195°
2026-05-06 18:22 36.71073 28.78955 13 ft 20 kts 195°
2026-05-06 18:22 36.70937 28.78908 13 ft 21 kts 195°
2026-05-06 18:22 36.70796 28.78861 13 ft 22 kts 195°
2026-05-06 18:23 36.70677 28.78821 13 ft 16 kts 195°
2026-05-06 18:23 36.70564 28.78782 13 ft 17 kts 195°
2026-05-06 18:23 36.70442 28.78742 13 ft 19 kts 195°
2026-05-06 18:23 36.70314 28.78697 13 ft 20 kts 196°
2026-05-06 18:24 36.70193 28.78655 13 ft 11 kts 195°
2026-05-06 18:24 36.70116 28.78633 13 ft 11 kts 183°
2026-05-06 18:24 36.70057 28.78687 13 ft 11 kts 112°
2026-05-06 18:24 36.70061 28.78779 13 ft 10 kts 70°
2026-05-06 18:25 36.70102 28.78837 13 ft 8 kts 31°
2026-05-06 18:25 36.70159 28.78858 13 ft 14 kts 15°
2026-05-06 18:25 36.70426 28.78950 13 ft 75 kts 15°
2026-05-06 18:25 36.71143 28.79192 13 ft 136 kts 15°
2026-05-06 18:26 36.72216 28.79555 85 ft 176 kts 15°
2026-05-06 18:26 36.73394 28.79781 777 ft 171 kts
2026-05-06 18:26 36.74582 28.79807 1475 ft 170 kts 360°
2026-05-06 18:26 36.75781 28.79799 1999 ft 180 kts 359°
2026-05-06 18:27 36.77132 28.79790 2232 ft 205 kts 359°
2026-05-06 18:27 36.78597 28.79787 2529 ft 227 kts 359°
2026-05-06 18:27 36.80209 28.79505 2913 ft 247 kts 336°
2026-05-06 18:27 36.81738 28.78394 3507 ft 259 kts 328°
2026-05-06 18:28 36.83278 28.77185 4354 ft 262 kts 329°
2026-05-06 18:28 36.84825 28.75982 5234 ft 263 kts 329°
2026-05-06 18:28 36.86389 28.74769 6100 ft 265 kts 329°
2026-05-06 18:28 36.87713 28.73748 6801 ft 266 kts 329°
2026-05-06 18:29 36.89259 28.72462 7591 ft 270 kts 322°
2026-05-06 18:29 36.90557 28.70752 8375 ft 275 kts 308°